Wind_Speed
42 44 39 35 41 42 42 43 45 40 47 52 50 52 45 38 37 36 34 36 43 45 44 45 41 41 42 41 42 42 42 42 42 42 42 44 45 45 44 44 44 44 44 42
46 45 36 42 40 43 43 43 40 42 45 50 49 50 46 39 34 29 33 35 43 43 41 42 40 40 42 45 45 46 46 46 47 47 48 48 47 46 45 45 47 46 44 44
50 46 46 43 43 44 44 44 42 46 47 49 54 50 43 37 32 33 32 35 38 40 37 35 37 42 45 48 48 48 47 48 49 50 49 47 47 47 49 48 48 47 44 44
56 47 48 47 46 46 49 47 48 49 52 53 53 58 41 37 41 38 33 28 25 29 31 31 38 43 47 49 50 48 49 52 52 52 51 49 48 47 47 47 47 46 46 48
49 50 45 47 46 46 50 48 49 51 54 58 54 58 51 47 44 42 37 31 33 34 33 34 39 44 48 51 51 50 48 48 52 52 51 52 50 48 46 47 46 47 49 53
51 53 52 51 47 48 52 53 52 54 58 64 54 58 63 55 49 49 42 38 50 36 32 37 42 44 47 50 52 50 46 46 48 50 51 52 50 50 48 48 49 51 55 57
52 55 54 52 53 52 52 53 56 61 62 64 57 65 66 61 56 55 40 41 40 37 36 36 36 42 47 51 55 53 49 46 47 49 53 54 53 53 51 52 54 57 60 61
54 58 54 52 51 48 56 54 58 62 64 69 64 66 65 65 62 55 47 45 35 37 33 36 40 45 48 52 57 53 51 48 46 49 53 54 53 54 54 55 57 59 62 64
52 56 54 56 57 58 63 65 58 62 67 70 66 63 60 63 65 63 56 35 42 42 39 40 41 45 51 56 60 58 55 52 48 50 52 53 55 57 56 57 59 61 63 66
59 61 59 62 60 62 61 60 64 66 66 69 65 65 65 70 66 51 49 45 47 46 47 49 49 50 52 57 61 60 60 58 53 53 56 57 59 59 60 60 61 64 66 68
62 65 65 66 65 60 66 67 68 67 71 73 69 65 65 62 60 62 58 53 54 51 50 52 53 52 57 60 61 61 59 59 58 56 59 62 62 61 62 64 65 67 68 70
71 73 76 70 64 67 74 72 69 68 65 70 71 70 64 58 56 58 58 54 54 52 55 58 56 58 61 59 55 58 59 57 58 57 63 66 68 64 66 67 69 69 70 70
75 78 80 76 72 70 70 68 68 70 69 73 76 74 59 58 59 57 59 62 59 60 59 60 59 58 58 59 62 61 56 58 60 66 67 67 65 67 69 70 70 69 71 72
74 78 75 75 64 64 69 69 71 74 76 73 75 74 63 59 63 57 55 63 66 63 59 55 56 56 62 64 63 61 61 64 65 66 67 65 67 69 68 70 69 69 71 71
58 59 65 65 62 67 70 71 71 74 75 77 70 75 68 65 64 62 58 53 59 60 58 60 61 62 61 63 64 61 64 65 66 67 64 67 67 67 68 69 70 70 68 65
55 56 52 58 57 57 61 66 73 71 71 75 75 73 63 55 57 59 48 50 56 52 56 60 60 64 65 64 65 69 71 71 67 63 65 65 66 66 66 69 69 70 64 70
71 62 61 66 63 54 61 54 58 49 51 56 56 55 51 55 55 54 61 66 65 60 62 63 63 64 64 65 68 70 70 69 69 69 67 63 63 65 68 70 73 73 76 72
84 83 88 87 78 87 73 52 57 60 61 58 68 74 62 69 71 59 66 68 75 73 74 71 68 67 67 68 63 61 61 57 54 53 57 59 62 68 69 70 75 80 75 71
98 91 87 92 93 97 99 79 76 84 88 82 85 77 79 73 55 68 71 50 54 68 67 66 66 67 59 59 57 53 55 54 56 63 54 58 62 65 71 80 83 78 73 72
90 80 78 81 89 91 96 90 89 96 97 96 88 88 88 74 64 72 54 56 65 66 70 65 65 65 64 65 62 61 64 71 59 56 58 61 69 72 77 78 78 74 73 71
82 88 93 94 86 87 83 80 79 90 98 87 83 81 77 74 72 68 61 59 62 61 60 61 60 61 65 65 62 61 58 56 54 59 64 63 67 63 66 74 75 76 72 72
96 86 83 85 93 98 85 78 82 82 81 84 82 74 69 65 65 63 65 63 63 66 63 58 61 66 64 68 68 68 69 59 59 61 59 69 75 77 74 74 71 75 70 67
72 83 78 70 74 75 74 77 69 72 71 63 67 75 78 73 68 67 69 68 69 63 60 61 62 66 73 75 81 75 73 75 73 68 63 66 66 68 68 62 64 71 65 61
71 69 80 81 80 72 70 74 68 78 71 66 62 60 57 59 61 62 62 63 64 67 59 58 63 67 73 78 75 66 72 76 76 73 69 64 68 65 62 64 66 60 57 57
92 91 86 83 72 69 78 84 94 84 67 65 65 67 62 70 69 68 70 66 70 73 68 69 69 72 75 85 74 67 70 73 75 73 76 76 73 74 61 63 58 57 57 59
100 99 93 97 93 91 89 71 70 75 79 78 75 79 75 79 88 89 85 74 75 82 87 84 81 85 84 83 80 78 80 81 81 80 82 75 68 67 63 67 66 61 55 54
Wind_Direction
281 283 291 290 284 284 283 283 283 286 284 285 286 285 284 282 281 291 292 292 292 293 293 292 290 285 283 284 285 285 287 288 291 291 294 292 288 284 281 279 276 275 276 277
282 281 288 282 285 284 286 286 288 286 283 284 285 283 286 288 287 293 291 292 291 292 293 291 286 282 281 281 281 279 281 285 289 293 293 293 291 283 279 279 278 277 276 275
277 282 280 280 282 283 281 282 286 285 284 284 285 281 286 290 292 292 293 294 291 289 286 280 280 280 282 281 282 283 283 286 289 290 290 291 287 284 280 280 278 275 274 276
273 277 277 279 279 281 282 282 283 283 284 286 284 290 287 293 294 299 304 301 287 291 282 278 279 281 281 282 284 286 286 289 289 287 288 289 287 284 283 280 277 274 275 279
277 275 274 275 279 278 280 281 281 283 282 283 284 291 297 295 299 303 313 305 300 299 280 276 278 276 277 279 281 282 284 285 286 287 289 288 287 285 280 277 273 272 275 279
271 273 273 275 276 275 278 279 280 278 277 279 291 289 289 294 299 301 305 306 310 307 288 277 277 276 275 278 281 282 283 285 288 287 286 286 285 284 280 276 273 274 277 280
269 269 269 271 273 274 275 275 275 275 276 282 287 284 288 293 297 297 303 305 304 295 294 285 281 281 281 282 282 283 285 283 286 286 285 284 285 284 278 275 274 276 281 284
270 273 271 267 267 270 269 268 268 274 278 281 278 280 289 292 292 295 300 300 301 291 290 290 286 284 283 280 282 288 287 288 288 289 289 289 287 284 281 276 275 278 282 284
273 269 270 269 268 265 267 267 271 271 273 277 284 285 287 288 294 297 301 300 291 287 295 293 285 280 279 283 285 290 293 294 292 293 294 291 289 286 282 278 278 281 283 285
268 268 267 267 269 267 264 269 270 271 272 275 282 285 288 290 290 295 298 307 296 296 296 289 284 282 280 283 288 294 298 297 294 294 294 292 290 289 284 280 281 283 284 285
268 266 267 266 266 271 270 269 266 266 268 272 278 280 281 288 293 297 301 299 296 299 293 285 287 287 282 284 292 296 298 298 297 299 296 293 290 289 287 283 282 284 284 285
274 275 268 267 266 270 270 269 267 269 273 271 273 274 277 283 290 289 292 293 295 293 287 285 286 284 283 288 292 293 296 297 294 298 295 293 290 290 290 288 286 287 284 282
271 267 269 267 266 268 270 273 272 271 270 269 269 276 284 280 282 282 290 291 285 281 282 283 284 284 286 287 290 293 295 296 294 294 293 293 291 291 290 288 285 285 283 284
264 266 268 267 269 270 273 270 268 267 265 271 271 278 278 281 283 278 279 281 282 283 283 279 281 287 286 287 290 292 294 294 294 291 289 288 287 287 286 284 283 283 284 284
271 270 265 265 264 261 263 264 266 266 270 268 275 278 281 276 279 279 278 281 280 277 281 279 281 284 283 286 287 287 290 291 286 286 287 289 289 287 284 283 285 281 283 290
265 270 270 268 265 263 263 263 263 261 264 273 278 275 277 279 277 277 282 277 287 280 279 281 284 284 287 287 287 290 290 287 284 284 285 286 288 287 286 286 283 278 287 292
268 269 267 268 265 261 261 264 272 265 259 265 272 279 285 276 284 292 285 284 283 284 284 286 285 283 283 284 286 287 287 286 285 285 285 285 285 287 286 284 280 282 290 291
270 272 274 274 273 268 264 259 263 262 262 259 275 282 277 287 292 286 286 286 288 287 289 286 282 283 283 286 283 279 278 281 284 289 290 284 287 286 283 281 281 291 293 291
276 279 278 279 278 275 276 269 269 276 275 277 276 277 284 293 291 286 294 276 269 279 276 279 279 276 277 280 278 274 276 287 289 298 294 286 284 284 285 282 283 289 289 290
275 273 272 273 276 278 284 280 278 281 282 281 282 285 285 287 280 286 289 269 268 268 275 276 276 275 277 276 276 269 277 290 291 292 282 281 284 284 283 284 285 285 287 289
269 273 275 278 276 274 277 280 282 275 284 289 287 284 285 279 278 278 275 269 268 265 267 272 277 278 278 281 288 291 289 296 296 294 295 291 287 287 287 286 284 285 285 289
270 272 269 274 278 278 287 283 275 279 274 274 277 277 278 277 275 273 272 262 264 263 266 269 273 275 283 292 293 292 288 295 299 292 288 289 291 290 289 290 286 284 286 289
258 264 264 261 270 275 277 278 275 281 279 273 276 272 270 272 272 275 275 276 262 263 267 273 275 280 286 288 291 291 287 286 291 296 296 291 290 290 290 291 294 287 290 295
251 263 266 271 264 260 265 267 266 277 274 277 275 271 266 266 271 267 266 270 262 257 262 265 273 283 290 292 288 287 283 286 290 293 296 296 289 283 287 295 293 289 290 293
257 260 259 258 256 260 257 259 265 257 256 263 265 263 263 267 269 269 265 255 253 258 255 261 273 281 289 296 280 286 281 286 289 290 297 297 295 297 292 297 289 288 291 292
256 252 255 257 257 261 260 249 252 256 264 265 263 264 262 271 278 273 262 254 255 272 260 264 276 280 290 293 278 280 284 286 286 291 294 293 293 287 296 298 291 287 290 291
Height
5816 5813 5817 5816 5810 5807 5806 5803 5800 5804 5794 5788 5789 5784 5790 5796 5795 5792 5790 5787 5780 5775 5773 5771 5768 5765 5761 5760 5758 5756 5753 5750 5748 5746 5743 5741 5738 5736 5734 5732 5730 5729 5729 5729
5806 5804 5811 5803 5804 5799 5796 5793 5794 5790 5786 5779 5779 5774 5777 5782 5784 5786 5782 5778 5771 5767 5765 5763 5759 5755 5753 5751 5749 5747 5744 5741 5738 5736 5733 5730 5727 5725 5722 5720 5719 5719 5718 5717
5796 5798 5796 5796 5794 5791 5788 5784 5784 5779 5776 5770 5762 5761 5767 5771 5772 5774 5773 5769 5762 5758 5755 5753 5750 5746 5744 5741 5739 5737 5734 5731 5727 5724 5721 5718 5715 5712 5710 5709 5708 5706 5706 5704
5781 5790 5786 5784 5783 5782 5775 5778 5774 5769 5763 5759 5756 5737 5757 5760 5758 5759 5760 5757 5754 5751 5747 5745 5741 5737 5733 5730 5728 5726 5723 5720 5716 5712 5709 5705 5702 5699 5698 5696 5694 5693 5692 5691
5777 5773 5776 5773 5774 5773 5765 5765 5763 5760 5753 5744 5747 5738 5738 5743 5746 5747 5747 5745 5743 5742 5740 5736 5731 5727 5724 5720 5716 5715 5713 5709 5705 5700 5697 5694 5692 5688 5686 5684 5682 5680 5678 5676
5765 5762 5763 5762 5763 5761 5757 5754 5751 5746 5740 5730 5742 5736 5723 5733 5735 5733 5738 5734 5723 5726 5724 5723 5720 5716 5712 5708 5705 5704 5703 5698 5693 5689 5685 5682 5679 5676 5674 5673 5670 5668 5665 5661
5753 5750 5750 5751 5750 5748 5746 5743 5736 5729 5725 5720 5729 5718 5713 5717 5723 5720 5725 5726 5721 5714 5713 5710 5706 5703 5699 5695 5690 5690 5689 5688 5684 5679 5673 5669 5666 5662 5660 5658 5656 5654 5650 5646
5734 5733 5738 5739 5736 5735 5728 5729 5725 5718 5718 5709 5713 5698 5704 5705 5704 5708 5714 5711 5708 5704 5701 5699 5695 5689 5684 5678 5674 5675 5673 5673 5671 5667 5661 5657 5653 5649 5646 5643 5640 5638 5635 5631
5722 5718 5719 5719 5721 5721 5715 5711 5715 5706 5705 5699 5693 5692 5695 5693 5692 5692 5696 5700 5695 5690 5689 5686 5682 5678 5672 5667 5662 5660 5660 5660 5658 5653 5647 5643 5639 5636 5633 5630 5626 5622 5619 5615
5706 5698 5705 5700 5704 5702 5699 5703 5696 5691 5689 5685 5684 5684 5680 5679 5678 5681 5682 5684 5679 5678 5676 5671 5667 5664 5660 5656 5651 5649 5647 5645 5643 5639 5634 5630 5627 5622 5619 5615 5611 5607 5602 5598
5689 5682 5685 5682 5684 5690 5685 5683 5680 5679 5675 5669 5672 5669 5665 5666 5667 5666 5667 5668 5664 5664 5660 5653 5650 5648 5644 5640 5637 5635 5632 5629 5627 5625 5620 5615 5611 5608 5604 5600 5596 5591 5588 5583
5668 5659 5656 5664 5667 5668 5661 5662 5663 5658 5661 5656 5655 5644 5664 5668 5664 5660 5656 5655 5652 5649 5643 5637 5635 5632 5627 5626 5624 5621 5618 5615 5611 5609 5605 5600 5596 5592 5588 5584 5580 5576 5572 5567
5648 5634 5632 5642 5646 5644 5643 5651 5649 5642 5641 5635 5632 5629 5657 5658 5651 5648 5644 5638 5634 5629 5627 5624 5621 5616 5613 5610 5608 5607 5605 5602 5598 5594 5588 5584 5581 5577 5572 5568 5563 5558 5554 5550
5620 5612 5614 5617 5634 5632 5621 5625 5626 5621 5614 5619 5615 5615 5634 5639 5632 5634 5632 5624 5615 5615 5612 5610 5607 5604 5597 5594 5593 5592 5590 5586 5583 5577 5571 5567 5564 5559 5554 5550 5546 5541 5537 5532
5598 5591 5594 5597 5602 5608 5604 5604 5603 5604 5603 5591 5608 5599 5609 5616 5619 5617 5616 5612 5602 5598 5596 5593 5592 5587 5584 5579 5576 5575 5573 5569 5565 5560 5556 5551 5546 5542 5538 5535 5530 5526 5520 5514
5586 5576 5577 5573 5581 5583 5580 5583 5584 5590 5588 5581 5582 5580 5600 5596 5599 5599 5599 5596 5582 5587 5581 5575 5572 5567 5567 5564 5559 5557 5554 5551 5546 5541 5537 5533 5530 5525 5520 5516 5512 5507 5501 5496
5568 5565 5561 5555 5565 5561 5549 5572 5574 5570 5574 5572 5563 5571 5579 5577 5580 5582 5578 5572 5568 5569 5565 5563 5560 5555 5551 5547 5543 5540 5535 5533 5528 5523 5518 5514 5510 5506 5501 5497 5493 5489 5484 5477
5548 5547 5545 5537 5544 5520 5545 5560 5558 5552 5556 5563 5554 5553 5561 5562 5559 5554 5557 5549 5549 5546 5545 5541 5539 5538 5535 5530 5525 5520 5518 5515 5511 5507 5501 5496 5493 5490 5487 5482 5476 5470 5463 5458
5529 5528 5513 5510 5507 5510 5510 5539 5548 5536 5527 5540 5537 5548 5546 5536 5528 5527 5543 5535 5522 5519 5518 5518 5518 5517 5515 5511 5506 5502 5499 5497 5494 5490 5486 5481 5477 5473 5470 5464 5458 5452 5446 5440
5506 5499 5492 5492 5484 5478 5496 5516 5529 5520 5476 5513 5530 5522 5516 5514 5497 5510 5522 5511 5506 5502 5495 5495 5495 5494 5495 5495 5491 5485 5482 5481 5477 5473 5470 5466 5461 5456 5450 5445 5440 5434 5428 5422
5480 5475 5467 5466 5458 5456 5481 5495 5498 5472 5475 5495 5492 5491 5492 5485 5484 5488 5492 5490 5486 5483 5478 5475 5474 5475 5475 5475 5474 5471 5468 5466 5461 5457 5453 5449 5444 5438 5432 5428 5423 5417 5410 5405
5461 5459 5452 5448 5440 5434 5466 5461 5458 5461 5464 5466 5467 5465 5463 5463 5463 5463 5465 5468 5464 5461 5458 5459 5459 5457 5458 5457 5455 5454 5451 5447 5443 5440 5435 5432 5426 5421 5415 5411 5404 5399 5393 5387
5437 5439 5431 5433 5428 5433 5433 5433 5430 5431 5429 5435 5440 5438 5437 5440 5443 5447 5444 5448 5446 5445 5442 5440 5441 5442 5440 5438 5436 5434 5431 5428 5424 5421 5417 5412 5406 5402 5398 5391 5385 5380 5375 5370
5415 5415 5411 5411 5412 5418 5417 5413 5409 5412 5408 5411 5415 5417 5417 5417 5420 5423 5424 5427 5427 5426 5421 5418 5418 5419 5418 5416 5414 5414 5412 5409 5405 5403 5398 5394 5390 5385 5379 5373 5367 5363 5357 5352
5397 5397 5396 5389 5397 5397 5392 5396 5389 5387 5388 5389 5389 5390 5392 5394 5397 5399 5400 5400 5402 5404 5402 5396 5396 5397 5397 5396 5394 5394 5392 5390 5388 5385 5379 5376 5373 5369 5362 5356 5350 5346 5340 5336
5370 5366 5362 5357 5378 5368 5366 5369 5364 5358 5365 5368 5366 5369 5373 5370 5374 5377 5374 5374 5375 5376 5376 5372 5370 5372 5373 5377 5375 5372 5371 5369 5368 5365 5363 5359 5356 5351 5346 5340 5335 5331 5325 5319